Date,TemperatureHighF,TemperatureAvgF,TemperatureLowF,DewpointHighF,DewpointAvgF,DewpointLowF,HumidityHigh,HumidityAvg,HumidityLow,PressureMaxIn,PressureMinIn,WindSpeedMaxMPH,WindSpeedAvgMPH,GustSpeedMaxMPH,PrecipitationSumIn
2013-1-1,48,38,30,13,10,5,46,31,20,30.30,30.20,4,0,6,0.00
2013-1-2,55,40,29,10,7,4,37,26,16,30.26,30.11,2,0,6,0.00
2013-1-3,55,39,25,12,6,1,43,26,15,30.30,30.15,2,0,3,0.00
2013-1-4,54,39,27,14,5,0,40,25,15,30.34,30.20,1,0,3,0.00
2013-1-5,54,41,24,12,5,1,38,23,14,30.35,30.12,0,0,0,0.00
2013-1-6,54,45,37,31,23,3,73,44,19,30.12,29.90,8,2,12,0.00
2013-1-7,44,39,34,29,19,13,72,46,29,30.03,30.00,4,1,8,0.00
2013-1-9,61,57,54,30,28,26,39,32,27,29.86,29.75,12,8,16,0.00
2013-1-10,55,43,34,37,19,6,63,39,23,29.94,29.68,23,11,32,0.00
2013-1-11,46,38,32,17,12,1,50,36,16,30.06,29.94,8,3,12,0.00
2013-1-12,45,34,27,13,7,2,47,33,19,30.16,30.04,3,0,6,0.00
2013-1-13,42,30,18,9,2,-2,47,31,21,30.23,30.06,4,1,7,0.00
2013-1-14,40,30,20,0,-4,-6,34,24,14,30.42,30.23,1,0,3,0.00
2013-1-15,49,34,22,7,0,-7,31,23,15,30.57,30.41,2,0,2,0.00
2013-1-16,56,40,25,14,8,2,39,27,18,30.50,30.32,0,0,3,0.00
2013-1-17,60,43,30,13,9,5,43,27,12,30.37,30.23,2,0,4,0.00
2013-1-18,60,45,34,10,6,2,28,20,12,30.30,30.17,3,0,5,0.00
2013-1-19,63,46,33,10,5,1,28,19,10,30.33,30.19,2,0,5,0.00
2013-1-20,64,48,37,11,4,1,23,16,10,30.25,30.11,3,0,7,0.00
2013-1-21,67,51,41,10,4,1,21,15,9,30.20,30.08,6,0,7,0.00
2013-1-22,66,50,34,12,6,1,26,17,11,30.18,30.06,1,0,3,0.00
2013-1-23,58,50,41,32,11,6,52,21,15,30.14,30.03,0,0,0,0.00
2013-1-24,53,50,47,49,44,26,91,80,43,30.19,30.06,0,0,1,0.14
2013-1-25,57,52,48,50,47,45,94,85,66,30.18,29.95,0,0,2,0.12
2013-1-26,64,55,47,52,45,35,98,72,49,29.95,29.73,12,2,27,0.02
2013-1-27,53,48,43,39,28,19,68,48,26,29.90,29.73,19,8,32,0.00
2013-1-28,53,43,35,24,18,10,58,38,18,30.08,29.90,5,2,13,0.00
2013-1-29,61,46,34,32,27,22,65,48,27,30.20,30.01,7,1,15,0.00
2013-1-30,66,51,38,30,28,26,66,43,25,30.31,30.18,1,0,5,0.00
2013-1-31,68,53,41,32,29,27,63,42,23,30.24,30.10,1,0,9,0.00
2013-2-1,68,50,40,31,29,27,63,45,23,30.19,30.10,0,0,2,0.00
2013-2-2,65,55,44,32,29,26,57,38,23,30.25,30.13,3,0,4,0.00
2013-2-3,70,59,48,38,34,29,63,41,23,30.14,29.92,2,0,6,0.00
2013-2-4,72,57,47,32,23,18,50,29,15,30.05,29.91,1,0,4,0.00
2013-2-5,71,56,39,29,24,18,56,30,15,29.96,29.75,12,2,14,0.00
2013-2-6,69,57,48,30,20,6,43,25,9,29.98,29.77,12,2,15,0.00
2013-2-7,67,50,38,30,21,9,53,34,11,29.99,29.72,13,3,18,0.00
2013-2-8,52,44,39,29,23,16,58,44,25,29.77,29.65,15,7,26,0.00
2013-2-9,56,45,39,25,21,16,55,40,23,29.95,29.77,7,2,11,0.00
2013-2-10,56,45,31,22,18,12,59,36,19,30.01,29.86,3,0,9,0.00
2013-2-11,53,44,33,14,7,1,40,23,13,30.20,30.00,6,1,12,0.00
2013-2-12,59,44,30,12,6,2,32,22,13,30.33,30.20,2,0,2,0.00
2013-2-13,67,50,33,19,13,8,39,24,14,30.27,30.09,2,0,3,0.00
2013-2-14,68,54,40,25,20,12,41,27,17,30.19,30.06,5,1,10,0.00
2013-2-15,70,57,44,23,19,14,42,25,13,30.26,30.17,5,1,15,0.00
2013-2-16,69,54,40,20,13,10,34,21,11,30.25,29.92,4,0,4,0.00
2013-2-17,71,57,42,24,15,6,31,20,8,29.91,29.72,8,1,11,0.00
2013-2-18,67,54,37,27,22,14,53,32,17,29.93,29.72,10,2,17,0.00
2013-2-19,56,48,39,34,26,11,77,45,22,29.74,29.46,18,8,25,0.00
2013-2-20,60,46,36,32,21,15,84,40,18,29.85,29.44,9,4,16,0.00
2013-2-21,56,44,34,22,16,6,56,34,16,30.03,29.84,6,1,12,0.00
2013-2-22,61,48,33,26,18,9,57,33,13,30.15,30.04,6,1,10,0.00
2013-2-23,66,52,40,26,20,8,47,30,17,30.05,29.73,25,6,35,0.00
2013-2-24,58,47,36,9,4,0,29,18,10,30.17,30.05,6,2,12,0.00
2013-2-25,64,48,34,16,7,1,29,19,11,30.20,29.92,4,0,10,0.00
2013-2-26,62,51,39,17,10,2,38,21,11,30.15,29.98,3,0,7,0.00
2013-2-27,63,49,34,12,6,2,30,18,10,30.30,30.15,2,0,7,0.00
2013-2-28,69,52,37,13,8,3,28,17,9,30.37,30.26,1,0,2,0.00
2013-3-1,74,59,44,22,16,8,25,19,13,30.36,30.18,3,0,6,0.00
2013-3-2,78,63,46,25,21,17,33,21,12,30.24,29.93,7,1,11,0.00
2013-3-3,73,64,55,36,30,23,40,29,21,29.93,29.70,18,9,25,0.00
2013-3-4,73,61,48,33,28,22,52,30,15,29.94,29.77,5,0,7,0.00
2013-3-5,72,59,44,34,27,22,49,31,19,29.95,29.76,11,2,17,0.00
2013-3-6,63,54,46,35,30,25,65,42,26,29.88,29.78,22,11,29,0.00
2013-3-7,58,50,44,36,31,23,68,50,28,29.83,29.73,11,5,19,0.00
2013-3-8,45,41,36,39,34,28,90,76,56,29.87,29.66,8,1,12,0.30
2013-3-9,65,51,36,36,28,15,89,46,21,30.18,29.87,6,1,7,0.00
2013-3-10,72,56,41,21,14,7,34,20,10,30.27,30.09,2,0,7,0.00
2013-3-11,75,59,41,28,18,12,43,23,9,30.15,29.96,1,0,3,0.00
2013-3-12,80,62,46,25,20,16,34,21,10,30.07,29.95,2,0,3,0.00
2013-3-13,83,66,50,28,24,19,34,21,12,30.12,29.96,1,0,4,0.00
2013-3-14,90,70,52,35,27,23,39,22,11,30.06,29.88,3,0,4,0.00
2013-3-15,88,75,65,37,32,13,32,22,9,29.89,29.65,18,6,25,0.00
2013-3-16,86,72,62,36,30,21,34,22,10,29.76,29.61,17,5,21,0.00
2013-3-17,82,69,60,29,23,17,27,19,10,29.81,29.65,20,8,26,0.00
2013-3-18,77,66,53,28,22,18,32,20,11,29.89,29.73,12,3,17,0.00
2013-3-19,81,69,60,32,26,21,28,21,13,29.90,29.76,14,4,18,0.00
2013-3-20,76,67,61,38,31,22,39,26,16,29.86,29.67,22,13,29,0.00
2013-3-21,74,61,56,35,28,18,44,30,13,29.76,29.57,17,6,26,0.00
2013-3-22,76,63,54,32,23,12,38,22,10,29.76,29.60,9,2,13,0.00
2013-3-23,71,60,47,22,13,4,29,17,8,29.95,29.76,7,1,10,0.00
2013-3-24,76,60,45,26,14,7,40,18,9,29.98,29.79,4,0,6,0.00
2013-3-25,77,65,51,33,24,12,42,22,12,29.86,29.70,6,2,17,0.00
2013-3-26,79,68,59,32,23,4,29,19,9,29.74,29.60,19,8,28,0.00
2013-3-27,78,66,58,34,30,25,40,27,16,29.76,29.65,17,6,23,0.00
2013-3-28,78,66,58,39,33,24,45,30,16,29.87,29.76,14,6,18,0.00
2013-3-29,81,68,54,39,30,17,46,26,10,29.98,29.85,8,1,14,0.00
2013-3-30,82,70,60,38,31,24,35,24,14,29.92,29.78,6,2,13,0.00
2013-3-31,74,63,56,46,39,29,65,43,20,29.86,29.77,14,5,21,0.00
2013-4-1,74,61,52,37,31,24,47,34,17,29.91,29.80,18,8,24,0.00
2013-4-2,78,65,54,39,32,23,48,32,13,29.96,29.82,8,2,12,0.00
2013-4-3,83,70,54,38,33,24,50,28,13,29.96,29.82,7,1,8,0.00
2013-4-4,79,70,63,40,35,30,38,28,20,29.86,29.74,14,6,22,0.00
2013-4-5,80,67,59,40,34,24,45,31,16,29.84,29.71,12,4,18,0.00
2013-4-6,80,67,56,38,34,29,41,30,17,29.87,29.70,13,5,15,0.00
2013-4-7,82,67,60,37,34,30,40,30,17,29.79,29.53,24,6,31,0.00
2013-4-8,66,57,46,37,26,11,70,32,16,29.72,29.38,23,10,33,0.00
2013-4-9,71,59,48,18,12,3,28,17,7,29.96,29.72,11,3,18,0.00
2013-4-10,82,66,51,30,18,11,27,16,9,30.04,29.81,10,1,18,0.00
2013-4-11,83,71,59,39,27,22,37,21,12,29.82,29.53,16,3,22,0.00
2013-4-12,85,72,60,37,30,26,35,22,13,29.71,29.56,11,3,15,0.00
2013-4-13,87,74,64,35,31,26,32,21,14,29.61,29.38,21,10,27,0.00
2013-4-14,81,69,65,36,32,26,29,25,16,29.49,29.31,25,12,34,0.00
2013-4-15,73,63,54,32,26,16,37,25,13,29.52,29.35,27,19,33,0.00
2013-4-16,67,54,44,27,20,12,40,27,14,29.90,29.52,22,6,24,0.00
2013-4-17,66,55,43,19,11,3,30,18,10,30.11,29.90,5,1,12,0.00
2013-4-18,71,57,42,24,10,4,28,16,9,30.22,30.08,3,0,6,0.00
2013-4-19,81,65,47,27,15,5,24,15,8,30.15,29.82,10,2,16,0.00
2013-4-20,84,72,56,36,27,19,28,20,10,29.91,29.75,5,1,10,0.00
2013-4-21,89,74,61,39,30,25,35,22,11,29.85,29.68,10,3,15,0.00
2013-4-22,91,77,60,37,31,26,37,20,10,29.75,29.52,13,4,18,0.00
2013-4-23,79,71,62,32,19,7,24,14,9,29.84,29.57,6,1,14,0.00
2013-4-24,81,70,56,28,16,7,34,14,8,29.75,29.65,5,1,9,0.00
2013-4-25,84,71,56,34,26,18,33,20,10,29.81,29.67,11,2,17,0.00
2013-4-26,88,74,57,39,29,14,44,22,7,29.97,29.81,6,1,10,0.00
2013-4-27,92,80,64,39,28,19,31,17,8,29.98,29.78,10,2,14,0.00
2013-4-28,96,82,68,38,31,23,29,17,8,29.80,29.60,11,4,18,0.00
2013-4-29,96,84,68,42,35,24,37,19,8,29.65,29.45,13,4,19,0.00
2013-4-30,93,81,72,44,36,25,36,21,9,29.52,29.38,17,6,26,0.00
2013-5-1,82,74,64,41,14,-2,41,13,4,29.92,29.52,7,2,18,0.00
2013-5-15,94,83,76,35,30,26,22,15,10,29.60,29.55,11,7,15,0.00
2013-5-16,90,76,65,40,32,26,39,21,12,29.61,29.54,19,9,23,0.00
2013-5-17,82,71,63,41,38,34,44,31,20,29.68,29.57,19,9,29,0.00
2013-5-18,87,73,63,38,32,28,34,23,12,29.80,29.68,11,4,16,0.00
2013-5-19,88,76,64,38,31,26,28,20,11,29.82,29.67,8,2,11,0.00
2013-5-20,87,77,63,35,26,18,26,16,9,29.88,29.73,4,0,6,0.00
2013-5-21,93,80,70,32,25,18,22,14,8,29.76,29.51,20,9,26,0.00
2013-5-22,83,72,61,35,25,12,27,18,9,29.55,29.40,25,13,32,0.00
2013-5-23,82,68,58,27,18,-2,27,16,4,29.68,29.49,20,7,30,0.00
2013-5-24,84,69,55,37,26,16,40,21,8,29.77,29.64,8,1,15,0.00
2013-5-25,87,73,60,35,28,19,31,20,9,29.72,29.62,16,5,26,0.00
2013-5-26,88,74,63,39,31,23,34,22,13,29.72,29.63,20,6,33,0.00
2013-5-27,89,75,64,39,34,24,33,23,13,29.73,29.56,15,5,26,0.00
2013-5-28,88,76,66,44,40,36,39,28,17,29.56,29.46,15,7,26,0.00
2013-5-29,90,77,67,47,41,37,40,29,17,29.60,29.44,18,8,28,0.00
2013-5-30,95,80,67,47,39,26,44,26,9,29.65,29.50,17,6,29,0.00
2013-5-31,96,84,69,40,32,24,28,17,9,29.75,29.57,12,1,22,0.00
2013-6-1,100,87,70,36,27,20,24,13,6,29.73,29.55,6,1,12,0.00
2013-6-2,99,86,71,41,33,25,25,16,9,29.56,29.40,10,3,25,0.00
2013-6-3,97,84,71,48,39,29,34,21,10,29.56,29.43,10,2,19,0.00
2013-6-4,99,85,70,47,41,27,39,23,9,29.64,29.54,10,2,21,0.00
2013-6-5,102,88,74,50,42,32,38,22,9,29.71,29.55,13,3,22,0.00
2013-6-6,105,91,76,48,40,29,35,19,8,29.65,29.51,9,2,21,0.00
2013-6-7,106,94,77,49,38,25,34,16,6,29.60,29.47,6,1,15,0.00
2013-6-8,109,96,79,48,36,27,28,14,6,29.54,29.43,8,2,22,0.00
2013-6-9,101,89,77,50,33,13,36,16,5,29.59,29.51,9,2,21,0.00
2013-6-10,89,80,72,40,28,13,27,16,6,29.65,29.55,17,6,29,0.00
2013-6-11,100,87,73,45,36,27,34,18,8,29.74,29.60,15,4,24,0.00
2013-6-12,98,86,76,43,37,29,28,18,10,29.69,29.59,14,5,26,0.00
2013-6-13,96,83,73,41,28,13,28,15,5,29.68,29.57,19,9,32,0.00
2013-6-14,96,81,63,36,26,8,28,15,6,29.72,29.55,12,3,20,0.00
2013-6-15,95,82,68,38,29,12,32,16,5,29.67,29.59,10,3,23,0.00
2013-6-16,96,83,67,40,30,24,31,16,8,29.75,29.63,12,4,23,0.00
2013-6-17,98,84,69,44,35,27,40,19,9,29.75,29.60,14,4,27,0.00
2013-6-18,96,82,72,39,32,20,29,17,7,29.62,29.51,18,9,32,0.00
2013-6-19,77,69,66,37,34,27,30,27,18,29.59,29.50,22,12,36,0.00
2013-6-20,92,78,66,36,28,17,28,17,7,29.69,29.51,14,4,20,0.00
2013-6-21,95,80,68,36,32,20,29,19,7,29.67,29.52,18,5,23,0.00
2013-6-22,97,83,69,36,32,27,26,17,9,29.68,29.53,10,3,15,0.00
2013-6-23,94,81,70,42,37,33,28,21,13,29.55,29.41,22,7,31,0.00
2013-6-24,85,80,73,49,46,40,41,30,24,29.62,29.53,22,14,30,0.00
2013-6-25,95,82,70,52,48,44,48,32,18,29.72,29.61,20,8,28,0.00
2013-6-26,103,88,74,57,49,42,48,28,14,29.77,29.66,11,3,18,0.00
2013-6-27,105,91,76,56,50,42,47,27,12,29.83,29.71,8,3,13,0.00
2013-6-28,108,95,81,55,49,37,38,23,9,29.78,29.60,10,3,15,0.00
2013-6-29,110,96,82,53,47,35,34,20,8,29.67,29.51,11,3,16,0.00
2013-6-30,112,98,86,52,43,34,27,16,8,29.60,29.44,12,4,19,0.00
2013-7-1,109,98,85,50,44,36,27,17,10,29.64,29.50,11,2,16,0.00
2013-7-2,108,95,81,52,47,43,33,20,12,29.73,29.55,14,4,18,0.00
2013-7-3,111,98,85,49,44,-100,26,17,11,29.63,29.43,14,6,19,0.00
2013-7-4,110,98,87,52,47,43,26,18,11,29.53,29.38,10,2,21,0.00
2013-7-5,106,95,86,54,48,36,33,21,11,29.49,29.39,13,5,25,0.00
2013-7-6,104,92,81,44,38,33,24,16,9,29.52,29.42,9,3,22,0.00
2013-7-7,105,93,81,42,35,27,23,14,7,29.60,29.48,14,3,27,0.00
2013-7-8,105,94,84,34,29,24,14,10,6,29.72,29.60,13,7,25,0.00
2013-7-9,106,94,83,37,30,24,14,11,7,29.78,29.69,14,6,25,0.00
2013-7-10,104,94,87,49,38,31,27,15,10,29.73,29.60,13,6,22,0.00
2013-7-11,90,84,80,60,49,42,50,30,22,29.75,29.61,11,1,21,0.00
2013-7-12,98,87,76,48,40,24,33,21,10,29.74,29.58,7,2,17,0.00
2013-8-16,103,95,85,49,46,42,26,19,13,29.69,29.62,10,5,18,0.00
2013-8-17,103,90,78,52,42,29,40,21,8,29.73,29.55,9,2,20,0.00
2013-8-18,103,86,73,62,45,38,46,25,15,29.80,29.58,4,0,15,0.04
2013-8-19,97,82,68,68,59,53,86,50,26,29.83,29.67,9,0,13,0.45
2013-8-29,102,93,85,61,57,48,43,31,17,29.78,29.68,7,0,12,0.00
2013-8-30,97,88,78,63,57,50,44,36,26,29.83,29.69,4,0,11,0.00
2013-8-31,99,88,77,58,54,47,48,33,21,29.78,29.58,11,3,15,0.00
2013-9-1,98,87,78,55,52,49,43,31,21,29.74,29.59,10,3,16,0.00
2013-9-2,98,88,79,58,51,46,46,30,17,29.73,29.59,10,3,15,0.00
2013-9-3,98,91,79,57,50,47,44,26,19,29.73,29.62,8,2,13,0.00
2013-9-4,101,89,75,56,49,41,46,27,13,29.79,29.64,7,1,11,0.00
2013-9-5,98,91,79,52,50,48,37,25,20,29.75,29.71,2,0,4,0.00
2013-9-6,102,90,78,48,44,40,30,21,14,29.73,29.57,7,2,13,0.00
2013-9-7,101,88,77,54,43,32,35,22,10,29.73,29.58,7,1,10,0.00
2013-9-8,98,83,70,60,50,35,57,33,19,29.72,29.54,6,1,21,0.03
2013-9-9,95,83,70,59,50,39,66,36,18,29.68,29.51,9,1,12,0.00
2013-9-10,92,82,72,51,44,38,47,27,18,29.69,29.52,8,1,11,0.00
2013-9-11,92,82,71,47,42,39,34,25,17,29.76,29.65,6,0,7,0.00
2013-9-12,96,83,71,49,42,37,35,24,13,29.76,29.61,7,1,12,0.00
2013-9-13,96,84,69,49,46,42,44,28,16,29.66,29.49,6,1,11,0.00
2013-9-14,100,87,72,52,44,37,43,24,12,29.59,29.45,6,1,11,0.00
2013-9-15,99,88,74,49,41,34,38,22,11,29.60,29.51,9,2,18,0.00
2013-9-16,97,85,72,45,39,34,35,20,12,29.66,29.52,8,2,15,0.00
2013-9-17,93,80,73,41,34,16,30,20,6,29.58,29.44,15,4,24,0.00
2013-9-18,90,77,65,44,35,27,42,23,12,29.63,29.50,11,1,17,0.00
2013-9-19,92,79,67,38,27,23,26,15,9,29.72,29.59,2,0,7,0.00
2013-9-20,94,79,63,39,30,21,29,17,8,29.65,29.52,7,2,14,0.00
2013-9-21,84,73,63,42,39,30,44,30,14,29.59,29.49,20,6,34,0.00
2013-9-22,80,67,57,40,32,23,43,29,13,29.75,29.54,14,4,21,0.00
2013-9-23,88,72,56,43,34,29,54,27,13,29.85,29.74,2,0,6,0.00
2013-9-24,93,78,62,38,29,12,38,19,5,29.77,29.57,16,5,22,0.00
2013-9-25,80,70,59,43,33,15,47,27,9,29.57,29.35,22,13,29,0.00
2013-9-26,59,57,54,33,28,24,38,33,30,29.57,29.45,15,5,22,0.00
2013-10-9,61,55,51,41,37,34,59,51,40,29.62,29.44,11,3,22,0.00
2013-10-10,73,59,47,37,34,30,60,41,21,29.85,29.62,5,1,9,0.00
2013-10-11,62,54,47,37,34,33,59,48,38,29.96,29.85,3,0,5,0.00
2013-10-12,78,66,49,38,28,13,52,28,9,29.87,29.68,13,3,20,0.00
2013-10-13,75,65,57,36,30,22,39,28,17,29.90,29.66,12,4,18,0.00
2013-10-14,73,62,52,33,28,22,44,29,18,30.04,29.90,2,0,6,0.00
2013-10-15,74,62,50,31,24,19,43,25,14,29.99,29.88,3,0,4,0.00
2013-10-16,74,61,50,30,20,15,45,22,12,30.10,29.95,1,0,2,0.00
2013-10-17,78,62,48,35,20,16,41,20,11,29.99,29.82,1,0,2,0.00
2013-10-18,80,66,55,26,20,15,30,18,11,29.99,29.88,1,0,3,0.00
2013-10-19,84,66,50,29,18,12,29,16,9,30.01,29.86,1,0,4,0.00
2013-10-20,85,69,55,26,18,14,26,15,8,29.89,29.73,1,0,1,0.00
2013-10-21,83,69,56,28,20,16,28,16,10,29.90,29.79,3,0,4,0.00
2013-10-22,82,67,54,26,21,17,28,18,11,29.95,29.82,2,0,3,0.00
2013-10-23,82,67,54,30,22,19,35,19,11,29.85,29.74,5,0,6,0.00
2013-10-24,84,69,56,31,22,19,37,18,10,29.86,29.77,3,0,5,0.00
2013-10-25,86,71,57,31,24,19,28,18,9,29.97,29.86,6,0,11,0.00
2013-10-26,83,68,55,28,22,20,28,18,10,30.03,29.89,3,0,5,0.00
2013-10-27,82,67,55,37,24,18,43,20,10,29.90,29.43,18,4,26,0.00
2013-10-28,63,54,48,38,32,25,67,44,29,29.74,29.41,18,8,26,0.00
2013-10-29,63,52,44,38,34,30,68,51,30,29.89,29.72,13,2,18,0.00
2013-10-30,65,53,44,33,28,22,57,39,20,30.03,29.89,0,0,3,0.00
2013-10-31,70,55,43,32,24,18,57,32,17,30.12,30.01,1,0,3,0.00
2013-11-1,74,57,43,30,23,18,49,27,17,30.17,30.00,2,0,7,0.00
2013-11-2,76,60,45,34,26,22,56,29,15,30.01,29.68,9,0,13,0.00
2013-11-3,72,60,47,31,26,20,42,28,16,29.75,29.63,5,0,11,0.00
2013-11-4,66,57,49,34,25,16,50,30,18,29.93,29.63,3,0,6,0.00
2013-11-5,63,52,41,20,13,7,35,22,11,30.19,29.93,3,0,7,0.00
2013-11-18,64,59,56,37,36,35,47,42,35,29.94,29.89,4,1,12,0.00
2013-11-19,63,55,45,39,36,34,66,49,36,29.89,29.79,6,0,10,0.00
2013-11-20,68,58,49,43,37,34,64,47,32,29.79,29.63,14,3,18,0.00
2013-11-21,61,52,44,45,40,32,90,65,48,29.92,29.66,8,1,12,0.34
2013-11-22,44,42,39,36,34,32,85,76,62,30.04,29.92,6,1,12,0.24
2013-11-23,50,46,42,39,37,33,85,71,57,30.10,30.01,2,0,4,0.05
2013-11-24,58,47,39,40,36,30,86,67,34,30.19,30.09,0,0,1,0.00
2013-11-25,63,48,37,41,36,32,84,65,34,30.27,30.18,1,0,1,0.00
2013-11-26,61,50,40,40,36,33,80,61,35,30.26,30.11,0,0,0,0.00
2013-11-27,64,52,43,39,36,33,75,56,32,30.11,29.90,1,0,4,0.00
2013-11-28,60,50,42,40,34,30,76,56,33,30.07,29.92,2,0,4,0.00
2013-11-29,60,50,42,37,33,30,69,54,32,30.18,30.06,1,0,4,0.00
2013-11-30,65,52,44,35,31,28,65,46,27,30.23,30.10,3,0,5,0.00
2013-12-1,66,52,42,32,28,24,61,41,23,30.28,30.16,4,0,6,0.00
2013-12-2,66,55,40,32,25,14,60,35,14,30.18,29.70,8,1,13,0.00
2013-12-3,65,59,46,41,31,17,56,38,16,29.69,29.43,23,13,31,0.00
2013-12-4,47,40,31,21,11,6,42,30,22,29.96,29.57,9,0,15,0.00
2013-12-5,44,34,26,12,9,6,51,36,21,30.09,29.95,0,0,2,0.00
2013-12-6,49,37,24,18,7,-10,59,33,10,30.16,29.96,6,1,15,0.00
2013-12-7,45,39,35,32,12,-1,62,35,17,29.99,29.74,30,10,42,0.00
2013-12-8,41,33,28,11,9,6,47,37,27,30.27,29.99,4,1,6,0.00
2013-12-9,44,33,23,10,1,-8,48,28,13,30.50,30.26,3,0,7,0.00
2013-12-10,48,33,22,4,0,-4,42,25,13,30.49,30.24,0,0,0,0.00
2013-12-11,54,38,26,10,6,1,37,27,15,30.35,30.25,1,0,2,0.00
2013-12-12,58,42,27,17,12,8,49,30,18,30.30,30.12,1,0,3,0.00
2013-12-13,62,44,31,17,14,11,48,30,14,30.30,30.09,0,0,1,0.00
2013-12-14,60,48,38,23,17,14,44,31,18,30.42,30.30,3,0,7,0.00
2013-12-15,61,47,31,21,18,16,56,32,18,30.41,30.26,0,0,0,0.00
2013-12-16,65,50,39,23,19,17,43,31,18,30.31,30.18,0,0,0,0.00
2013-12-17,66,51,40,25,20,17,45,30,18,30.25,30.06,1,0,1,0.00
2013-12-18,62,52,42,26,22,18,46,32,21,30.06,29.70,1,0,7,0.00
2014-1-2,61,50,46,21,20,19,37,31,20,30.07,30.04,0,0,0,0.00